AirNav   Air Wisconsin Up To $57,000 Bonus
 
 1085 users online  

AZ38 Rittenhouse Army Heliport
Queen Creek, Arizona, USA

GOING TO QUEEN CREEK?


FAA INFORMATION EFFECTIVE 08 OCTOBER 2020

Location

FAA Identifier: AZ38
Lat/Long: 33-15-05.0000N 111-31-05.0000W
33-15.083333N 111-31.083333W
33.2513889,-111.5180556
(estimated)
Elevation: 1550 ft. / 472 m (estimated)
Variation: 12E (1995)
From city: 10 miles E of QUEEN CREEK, AZ
Time zone: UTC -7 (year round; does not observe DST)
Zip code: 85242

Heliport Operations

Heliport use: Private use. Permission required prior to landing
Activation date: 08/1999
Control tower: no
ARTCC: ALBUQUERQUE CENTER
FSS: PRESCOTT FLIGHT SERVICE STATION
Attendance: 
Segmented circle: no

Heliport Communications

WX AWOS-3 at IWA (8 nm NW): 133.5 (480-988-9428)
WX AWOS-3PT at CHD (15 nm W): 128.325 (480-814-9952)
WX ASOS at FFZ (16 nm NW): PHONE 480-641-4111
WX AWOS-3PT at P08 (19 nm S): 119.350 (520-723-4920)

Nearby radio navigation aids

VOR radial/distance  VOR name  Freq  Var
IWAr102/7.4WILLIE VORTAC113.3013E
PXRr104/25.1PHOENIX VORTAC115.6012E
TFDr030/29.4STANFIELD VORTAC114.8012E

 
NDB name  Hdg/Dist  Freq  Var  ID
CHANDLER082/14.640712ECHD -.-. .... -..

Heliport Services

Runway Information

Runway 12/30

Dimensions: 1500 x 50 ft. / 457 x 15 m
Surface: asphalt
RY 12/30 POTHOLES AND LOOSE GRAVEL ON RY.
RUNWAY 12  RUNWAY 30
Traffic pattern: leftleft

Heliport Ownership and Management from official FAA records

Ownership: U.S. Army
Owner: AZ ARMY NATIONAL GUARD
5363 E. MCDOWELL ROAD
PHOENIX, AZ 85224
Phone 602-267-2794
Manager: LTC JACK T. OGLE
Phone 602-267-2794

Additional Remarks

MILITARY HELICOPTER TRAINING STAGE FIELD OPNS DAY AND NIGHT.
24 HR PPR FOR ALL ACFT CALL C602 267-2794, DSN 853-2796.
FOR CD CTC PHOENIX APCH AT 602-306-2565.

Instrument Procedures

There are no published instrument procedures at AZ38.

Some nearby airports with instrument procedures:

KIWA - Phoenix-Mesa Gateway Airport (8 nm NW)
KCHD - Chandler Municipal Airport (15 nm W)
KFFZ - Falcon Field Airport (16 nm NW)
P08 - Coolidge Municipal Airport (19 nm S)
P19 - Stellar Airpark (20 nm W)
 
Loc | Ops | Rwys | IFR | FBO | Links
Com | Nav | Svcs | Stats | Notes
Area around AZ38 (Rittenhouse Army Heliport)
 
Road maps at: MapQuest Bing Google
 
Aerial photo
WARNING: Photo may not be current or correct
Aerial photo of AZ38 (Rittenhouse Army Heliport)
Do you have a better or more recent aerial photo of Rittenhouse Army Heliport that you would like to share? If so, please send us your photo.

 
Sectional chart

 
Airport distance calculator
Flying to Rittenhouse Army Heliport? Find the distance to fly.

From to AZ38

Sunrise and sunset
Times for 25-Oct-2020
 Local
(UTC-7)
 Zulu
(UTC)
Morning civil twilight06:1513:15
Sunrise06:4013:40
Sunset17:4000:40
Evening civil twilight18:0501:05

Current date and time
Zulu (UTC)  26-Oct-2020 01:28:02
Local (UTC-7)  25-Oct-2020 18:28:02
 
METAR
KIWA 
7nm NW 
260050Z 25010KT 10SM BKN180 BKN220 28/10 A2966
KCHD 
15nm W 
252247Z 19010KT 10SM SCT150 BKN220 30/09 A2965
KFFZ 
16nm NW 
260054Z 26008KT 10SM SCT075 BKN100 28/10 A2963 RMK AO2 SLP012 T02780100 $
TAF
KIWA 
7nm NW 
251739Z 2518/2618 20010KT P6SM FEW070 BKN150 FM252000 25015G23KT P6SM SCT100 SCT150 FM260300 22011KT P6SM SCT050 SCT120 FM261200 22012KT P6SM SCT050 BKN100 FM261700 27012G20KT P6SM SCT100
NOTAMs
Click for the latest NOTAMs
NOTAMs are issued by the DoD/FAA and will open in a separate window not controlled by AirNav.

 

 
 

Would you like to see your business listed on this page?

 If your business provides an interesting product or service to pilots, flight crews, aircraft, or users of the Rittenhouse Army Heliport, you should consider listing it here.  To start the listing process, click on the button below
 
Add a business
 

Other Pages about Rittenhouse Army Heliport

Update a link
 
Copyright © AirNav, LLC. All rights reserved. Privacy Policy  Contact